[[{"header":{"parameterUnit":"m.s-1","parameterCategory":1,"la1":30.2991,"la2":30.254,"lo1":-89.0895,"lo2":-89.0444,"dy":0.0017,"dx":0.0017,"nx":28,"ny":28,"refTime":"2024-06-13T09:00:00:Z","depth":0,"parameterNumber":2,"parameterNumberName":"U-component_of_WINDS"},"data":[0,0,0,0,0,0,0,0,0,0,0,0,0,0,0,0,0,0,0,0,0,0,0,0,0,0,0,0,0,0,0,0,0,0,0,0,0,0,0,0,0,0,0,0,0,0,0,0,0,0,0,0,0,0,0,0,0,0,-0.0176,-0.0177,0,-0.0225,-0.0225,-0.0226,-0.0297,-0.0298,-0.03,-0.0301,-0.0348,-0.0348,-0.0348,0,0,0,0,0,0,0,0,0,0,0,0,0,-0.0144,-0.0144,-0.0176,-0.0177,-0.0178,-0.0225,-0.0225,-0.0226,-0.0297,-0.0299,-0.03,-0.0301,-0.0348,-0.0348,-0.0348,0,0,0,0,0,0,0,0,0,0,0,0,0,-0.0171,-0.0144,-0.0176,-0.0219,-0.0223,-0.0225,-0.0225,-0.0226,-0.0297,-0.0299,-0.03,-0.0302,-0.0348,-0.0348,-0.0348,-0.0311,0,0,-0.0349,-0.0349,0,0,0,0,0,0,0,0,-0.017,-0.0173,-0.0212,-0.0216,-0.0221,-0.0257,-0.0231,-0.0255,-0.0296,-0.0269,-0.0301,-0.0303,-0.0316,-0.0319,-0.0324,-0.0313,-0.0315,-0.0349,-0.0349,-0.0349,-0.0349,0,0,0,0,0,0,0,-0.0168,-0.0171,-0.0195,-0.0212,-0.0218,-0.0235,-0.0241,-0.0236,-0.0281,-0.0271,-0.0276,-0.0281,-0.0319,-0.0323,-0.0325,-0.0316,-0.0349,-0.0349,-0.0349,-0.0349,-0.0278,-0.0276,0,0,0,0,0,0,-0.016,-0.0169,-0.0194,-0.0197,-0.0199,-0.0234,-0.0241,-0.0243,-0.0281,-0.0289,-0.028,-0.0284,-0.0322,-0.0325,-0.0327,-0.0286,-0.0349,-0.0349,-0.0349,-0.028,-0.0278,-0.0276,0,0,0,0,0,0,-0.0159,-0.0161,-0.0192,-0.0184,-0.019,-0.0232,-0.0235,-0.0243,-0.0248,-0.0288,-0.0296,-0.0276,-0.0324,-0.0327,-0.0315,-0.0289,-0.0349,-0.0349,-0.0283,-0.0279,-0.0277,-0.0204,0,0,0,0,0,0,-0.0158,-0.0161,-0.0147,-0.0184,-0.019,-0.0179,-0.0233,-0.0243,-0.0248,-0.0255,-0.0287,-0.0294,-0.0326,-0.0314,-0.0315,-0.029,-0.0349,-0.0285,-0.0281,-0.0278,-0.0209,-0.0199,-0.019,0,0,0,0,0,-0.0156,-0.0124,-0.0146,-0.0149,-0.0174,-0.0177,-0.0181,-0.0219,-0.0246,-0.0233,-0.0258,-0.0293,-0.0292,-0.0312,-0.0314,-0.0289,-0.0287,-0.0282,-0.0278,-0.0213,-0.0201,-0.0191,0,0,0,0,0,0,-0.0083,-0.013,-0.0155,-0.0134,-0.0151,-0.0189,-0.0174,-0.0205,-0.0214,-0.022,-0.0266,-0.0272,-0.0254,-0.0271,-0.0293,-0.0255,-0.0295,-0.029,-0.0245,-0.0234,-0.0224,-0.022,-0.0349,0,0,0,0,0,-0.0064,-0.0064,-0.0105,-0.0082,-0.009,-0.013,-0.0133,-0.0161,-0.018,-0.0188,-0.0213,-0.023,-0.0234,-0.0235,-0.024,-0.0212,-0.022,-0.0196,-0.0186,-0.0179,-0.0174,-0.016,-0.0149,-0.0261,-0.0261,-0.0261,0,0,-0.0025,-0.0051,-0.0048,-0.0068,-0.0085,-0.0082,-0.0136,-0.0131,-0.0129,-0.0187,-0.0177,-0.0196,-0.0218,-0.0197,-0.019,-0.021,-0.0145,-0.0173,-0.0167,-0.0166,-0.0154,-0.0144,-0.0134,-0.0258,-0.0259,-0.0259,0,0,0.0046,0.0027,0.0043,0.0027,0.0002,-0.0025,-0.0021,-0.0055,-0.007,-0.0061,-0.0105,-0.0104,-0.0109,-0.0123,-0.0131,-0.0066,-0.0097,-0.0066,-0.0017,-0.0003,0.0006,0.0013,0.0038,0.0047,-0.0062,-0.0061,-0.0061,0,0.0098,0.0099,0.0056,0.0063,0.0056,0.0002,0.0019,0.0006,-0.0019,-0.0023,-0.0046,-0.0055,-0.0073,-0.0057,-0.0041,-0.0046,-0.0042,-0.0062,0.0008,0.0015,0.0022,0.0044,0.0053,-0.0057,-0.0058,-0.0058,-0.0059,0,0.0164,0.0166,0.0182,0.0158,0.0152,0.0165,0.0124,0.0123,0.0095,0.0071,0.008,0.0056,0.0044,0.0046,0.0019,0.0058,0.0046,0.0016,-0.0024,0.0037,0.0057,0.0066,-0.0052,-0.0053,-0.0054,-0.0055,0,0,0.0283,0.0234,0.0241,0.0229,0.0197,0.0197,0.0207,0.0194,0.0195,0.0179,0.0187,0.0182,0.0154,0.0145,0.0116,0.0128,0.0182,0.0096,0.0095,0.0114,0.0225,0.025,0.026,0.016,0.0162,0.0163,0.0227,0,0.035,0.0363,0.0324,0.0347,0.0348,0.0297,0.0305,0.0287,0.0263,0.0261,0.0236,0.0234,0.0196,0.019,0.02,0.0174,0.0204,0.0168,0.0168,0.0169,0.0177,0.0271,0.0296,0.0359,0.0235,0.0236,0.0237,0,0.043,0.0417,0.044,0.0406,0.0405,0.0413,0.0399,0.0397,0.0374,0.0357,0.0346,0.0312,0.0319,0.0279,0.0289,0.0266,0.0263,0.025,0.0251,0.0251,0.0208,0.0275,0.0377,0.0388,0.0249,0.0248,0.0248,0,0.0515,0.0504,0.0516,0.0508,0.0468,0.0475,0.0459,0.0434,0.0429,0.0416,0.0413,0.0401,0.0396,0.0388,0.0351,0.0325,0.0366,0.0323,0.0353,0.0354,0.0365,0.0365,0.0471,0.0361,0.0361,0.0361,0.036,0,0.0595,0.0612,0.0554,0.0562,0.0579,0.0534,0.0552,0.0531,0.0509,0.0513,0.0467,0.0471,0.0422,0.0421,0.0392,0.0406,0.0403,0.039,0.0382,0.0395,0.0397,0.0393,0.0389,0.0363,0.0362,0.0362,0.0362,0,0.0694,0.0656,0.0667,0.0628,0.0618,0.0633,0.0599,0.0605,0.0578,0.0583,0.0582,0.054,0.0536,0.0498,0.0487,0.0467,0.0492,0.0475,0.05,0.0495,0.0527,0.0525,0.0636,0.0648,0.053,0.0531,0.0532,0,0.0748,0.076,0.0721,0.072,0.0706,0.0704,0.0698,0.0653,0.0649,0.0624,0.0634,0.0626,0.0617,0.0614,0.0583,0.0574,0.0557,0.0596,0.0556,0.0568,0.0559,0.056,0.0561,0.0606,0.0608,0.0609,0.061,0,0.0849,0.0829,0.0822,0.0809,0.0803,0.079,0.0775,0.0777,0.0727,0.0725,0.072,0.0714,0.0701,0.0694,0.0679,0.0663,0.0629,0.0622,0.0629,0.0643,0.0657,0.0651,0.0525,0.0621,0.062,0.0619,0.0618,0.0618,0.0928,0.0936,0.091,0.0903,0.0887,0.0873,0.0877,0.085,0.0845,0.0831,0.0804,0.0804,0.078,0.0756,0.0743,0.0742,0.0722,0.0731,0.0734,0.0737,0.0744,0.0656,0.0739,0.0738,0.0738,0.0738,0.0737,0,0.1027,0.1007,0.1002,0.0981,0.0976,0.0943,0.0924,0.0922,0.0922,0.0903,0.0895,0.0889,0.0882,0.085,0.084,0.0845,0.0829,0.0844,0.0844,0.0841,0.0762,0.0758,0.0857,0.0857,0.0857,0.0857,0.0857,0.0857,0.1078,0.1089,0.1066,0.1069,0.1049,0.1048,0.104,0.1027,0.1012,0.1007,0.1001,0.0979,0.0955,0.0942,0.0934,0.0925,0.0924,0.0944,0.093,0.0858,0.0846,0.0836,0.0831,0.0944,0.0944,0.1009,0.101,0.101]},{"header":{"parameterUnit":"m.s-1","parameterCategory":1,"la1":30.2991,"la2":30.254,"lo1":-89.0895,"lo2":-89.0444,"dy":0.0017,"dx":0.0017,"nx":28,"ny":28,"refTime":"2024-06-13T09:00:00:Z","depth":0,"parameterNumber":3,"parameterNumberName":"V-component_of_WINDS"},"data":[0,0,0,0,0,0,0,0,0,0,0,0,0,0,0,0,0,0,0,0,0,0,0,0,0,0,0,0,0,0,0,0,0,0,0,0,0,0,0,0,0,0,0,0,0,0,0,0,0,0,0,0,0,0,0,0,0,0,-1.557,-1.5571,0,-1.563,-1.563,-1.5631,-1.569,-1.569,-1.5691,-1.5692,-1.5751,-1.5752,-1.5753,0,0,0,0,0,0,0,0,0,0,0,0,0,-1.5507,-1.5508,-1.557,-1.5571,-1.5572,-1.563,-1.563,-1.5631,-1.5689,-1.569,-1.5691,-1.5692,-1.5751,-1.5752,-1.5753,0,0,0,0,0,0,0,0,0,0,0,0,0,-1.5547,-1.5508,-1.557,-1.5608,-1.5612,-1.5629,-1.563,-1.5631,-1.5689,-1.569,-1.5692,-1.5693,-1.5751,-1.5752,-1.5753,-1.5738,0,0,-1.5757,-1.5758,0,0,0,0,0,0,0,0,-1.5545,-1.555,-1.5602,-1.5605,-1.561,-1.5653,-1.563,-1.5667,-1.5689,-1.566,-1.5692,-1.5693,-1.5718,-1.5722,-1.573,-1.5741,-1.5743,-1.5757,-1.5758,-1.5758,-1.5759,0,0,0,0,0,0,0,-1.5542,-1.5547,-1.5594,-1.5602,-1.5607,-1.5622,-1.5629,-1.5637,-1.5681,-1.5662,-1.5667,-1.5673,-1.572,-1.5729,-1.5732,-1.5744,-1.5757,-1.5758,-1.5759,-1.576,-1.5747,-1.5746,0,0,0,0,0,0,-1.5534,-1.5545,-1.5592,-1.5596,-1.558,-1.5622,-1.563,-1.5638,-1.5681,-1.5689,-1.5672,-1.5676,-1.5726,-1.573,-1.5734,-1.572,-1.5758,-1.576,-1.576,-1.5748,-1.5746,-1.5745,0,0,0,0,0,0,-1.5532,-1.5537,-1.5589,-1.5571,-1.5579,-1.5622,-1.5631,-1.5639,-1.5648,-1.5689,-1.5697,-1.5673,-1.5727,-1.5733,-1.5737,-1.5723,-1.576,-1.5761,-1.5749,-1.5747,-1.5746,-1.569,0,0,0,0,0,0,-1.553,-1.5536,-1.5531,-1.5571,-1.558,-1.5591,-1.563,-1.5639,-1.565,-1.5655,-1.5692,-1.5699,-1.5728,-1.5735,-1.5738,-1.5725,-1.5762,-1.575,-1.5748,-1.5746,-1.5693,-1.5687,-1.5681,0,0,0,0,0,-1.5528,-1.5512,-1.553,-1.5536,-1.5574,-1.559,-1.5595,-1.563,-1.5648,-1.5643,-1.567,-1.5698,-1.5724,-1.5735,-1.5739,-1.5726,-1.5752,-1.5749,-1.5746,-1.5696,-1.5688,-1.5681,0,0,0,0,0,0,-1.5468,-1.5518,-1.5539,-1.5536,-1.5558,-1.56,-1.5594,-1.562,-1.5637,-1.5641,-1.5683,-1.5691,-1.5691,-1.5709,-1.572,-1.5715,-1.5742,-1.574,-1.5702,-1.5695,-1.5688,-1.5683,-1.5764,0,0,0,0,0,-1.5455,-1.5464,-1.5507,-1.55,-1.5511,-1.555,-1.5559,-1.5584,-1.5608,-1.5618,-1.5645,-1.5668,-1.5682,-1.5689,-1.5704,-1.5697,-1.5706,-1.5691,-1.5684,-1.5679,-1.5677,-1.5675,-1.5669,-1.5737,-1.5737,-1.5737,0,0,-1.5427,-1.5456,-1.5458,-1.5489,-1.5509,-1.5518,-1.5558,-1.5565,-1.5571,-1.5619,-1.5625,-1.5646,-1.5674,-1.5673,-1.5674,-1.5688,-1.566,-1.5676,-1.5671,-1.5672,-1.5672,-1.5665,-1.5659,-1.5735,-1.5736,-1.5736,0,0,-1.5381,-1.5403,-1.54,-1.542,-1.5451,-1.5478,-1.5478,-1.5516,-1.5532,-1.5539,-1.5575,-1.5584,-1.5606,-1.5625,-1.5638,-1.5601,-1.5627,-1.5605,-1.5572,-1.557,-1.5564,-1.556,-1.5546,-1.5541,-1.5603,-1.5603,-1.5603,0,-1.5342,-1.5356,-1.5395,-1.54,-1.5413,-1.5458,-1.5456,-1.5473,-1.5507,-1.5515,-1.5531,-1.5562,-1.5584,-1.5588,-1.5579,-1.5588,-1.5589,-1.56,-1.5562,-1.5558,-1.5554,-1.5542,-1.5537,-1.56,-1.56,-1.56,-1.5601,0,-1.5307,-1.5316,-1.531,-1.5342,-1.5355,-1.5356,-1.5396,-1.5404,-1.5429,-1.5454,-1.5461,-1.549,-1.5512,-1.5515,-1.5539,-1.5523,-1.5531,-1.5554,-1.5582,-1.5544,-1.5533,-1.5529,-1.5595,-1.5597,-1.5597,-1.5598,0,0,-1.5221,-1.5277,-1.5274,-1.529,-1.5329,-1.5337,-1.5341,-1.5363,-1.5369,-1.5392,-1.5396,-1.5415,-1.5438,-1.5452,-1.5479,-1.5477,-1.5446,-1.5501,-1.5502,-1.5489,-1.5431,-1.5412,-1.5406,-1.5465,-1.5464,-1.5464,-1.5428,0,-1.518,-1.519,-1.5226,-1.5225,-1.5234,-1.5279,-1.5283,-1.5307,-1.5331,-1.5343,-1.5371,-1.5383,-1.5412,-1.5421,-1.5422,-1.545,-1.5435,-1.5453,-1.5469,-1.5469,-1.5458,-1.54,-1.538,-1.5344,-1.5424,-1.5423,-1.5423,0,-1.5132,-1.5153,-1.5153,-1.5193,-1.5198,-1.52,-1.5225,-1.5236,-1.5265,-1.5283,-1.53,-1.5331,-1.5338,-1.5366,-1.5376,-1.5388,-1.5397,-1.5412,-1.5412,-1.5413,-1.5442,-1.5398,-1.5334,-1.5328,-1.5417,-1.5417,-1.5418,0,-1.5069,-1.5097,-1.5101,-1.5113,-1.516,-1.5161,-1.518,-1.5211,-1.5222,-1.5244,-1.5252,-1.5273,-1.5285,-1.5301,-1.5338,-1.5354,-1.5344,-1.5375,-1.5359,-1.5358,-1.5353,-1.5352,-1.5287,-1.5361,-1.5361,-1.5361,-1.5361,0,-1.5018,-1.5016,-1.5073,-1.5075,-1.5074,-1.5118,-1.5116,-1.514,-1.5167,-1.5174,-1.5215,-1.5221,-1.527,-1.5282,-1.531,-1.5315,-1.532,-1.5335,-1.5342,-1.533,-1.5328,-1.5335,-1.5338,-1.536,-1.536,-1.536,-1.5361,0,-1.4946,-1.4984,-1.4991,-1.5036,-1.5047,-1.5045,-1.5083,-1.5087,-1.5115,-1.5125,-1.5129,-1.5173,-1.519,-1.5228,-1.5255,-1.5274,-1.5271,-1.5285,-1.5261,-1.5265,-1.5247,-1.5248,-1.5183,-1.5177,-1.5255,-1.5255,-1.5254,0,-1.491,-1.491,-1.4955,-1.4963,-1.4981,-1.4994,-1.5007,-1.5051,-1.5062,-1.5096,-1.5096,-1.5116,-1.5134,-1.5159,-1.5193,-1.5214,-1.5228,-1.5205,-1.5232,-1.522,-1.5227,-1.5226,-1.5226,-1.5198,-1.5196,-1.5196,-1.5195,0,-1.4842,-1.4862,-1.4878,-1.4902,-1.4916,-1.4936,-1.4959,-1.4964,-1.5013,-1.5024,-1.5042,-1.5056,-1.5084,-1.5103,-1.513,-1.5151,-1.5181,-1.5187,-1.5184,-1.5171,-1.5156,-1.5163,-1.5243,-1.5187,-1.5188,-1.5189,-1.5189,-1.5189,-1.4786,-1.4788,-1.4821,-1.4838,-1.486,-1.4881,-1.4887,-1.4917,-1.4933,-1.4959,-1.4985,-1.5,-1.5032,-1.5071,-1.509,-1.5103,-1.5118,-1.5114,-1.5113,-1.5111,-1.5105,-1.5156,-1.5108,-1.5108,-1.5108,-1.5109,-1.5109,0,-1.4719,-1.4743,-1.4759,-1.479,-1.4804,-1.4833,-1.4861,-1.487,-1.4883,-1.491,-1.4928,-1.4949,-1.4969,-1.5006,-1.5029,-1.5032,-1.5047,-1.5037,-1.5036,-1.504,-1.5091,-1.509,-1.5025,-1.5025,-1.5025,-1.5025,-1.5025,-1.5025,-1.4686,-1.4691,-1.4715,-1.4732,-1.4756,-1.4771,-1.4785,-1.4804,-1.4826,-1.4848,-1.4865,-1.489,-1.4921,-1.4947,-1.4967,-1.4977,-1.4983,-1.4968,-1.4983,-1.5029,-1.5037,-1.5044,-1.5044,-1.497,-1.497,-1.4932,-1.4931,-1.4931]}]]